Вернуться в каталог

USA 316

АктивенНавигацияVLEO
NORAD 48846·PAYLOAD·🇺🇸 United States

Запущен Jun 15, 2021 с Wallops Flight Facility

Loading…

Ближайшие Пролёты (ближайшие 24 часа)

TLE

УстаревшееSource: Mike McCants

Эпоха: Aug 7, 2026, 23:18 UTC

1 48846U 21052A   26219.97105931 0.00003993  00000-0  23593-3 0    07
2 48846  54.9810 218.9230 0011533  32.4949 327.6582 15.10987501    08

Отслеживайте USA 316 в реальном времени с AllMySat

Download on the App Store